sat.trackr.live / text

‹ back to catalog

STARLINK-33559

NORAD 62107 · 2024-220V

PAYLOAD ACTIVE UNKNOWN

§ Identity

Operator
Country
US
Launch date
2024-11-25
Launch site
AFETR
Launch vehicle
Mass (kg)
RCS (m²)

Purposes: comms

External: N2YO · Heavens-Above · Gunter

§ Orbital elements

Epoch: 2026-09-21T03:39:23.031360Z

Period
94.27 min
Inclination
43.0018°
Eccentricity
0.0001135
Mean motion
15.27587236 rev/d
Perigee alt
482.2 km
Apogee alt
483.8 km
Semi-major
6,861.2 km
B*
3.7514e-4
RAAN
181.7596°
Arg perigee
268.2624°
Mean anomaly
91.8098°
Rev number
10,308

§ Raw data

STARLINK-335591 62107U 24220V   26264.15234990  .00010077  00000+0  37514-3 0  99962 62107  43.0018 181.7596 0001135 268.2624  91.8098 15.27587236103084

JSON: /api/v1/satellites/62107 · /tle

For live sub-satellite position, see the globe view (requires WebGL).

§ Visibility from observer

Set your observer location to see the next 7 days of passes ≥ 10°. The values pass through the URL so the page stays shareable.

No JS? Fill the form by hand. The geolocation button needs JavaScript.